Flag for U.S.A. Weather past 2 weeks in Green Bay, Wisconsin, U.S.A.

Now
54 °F

Sunny.


Feels Like: 52 °F
Forecast: 40 / 63 °F
Wind: 8 mph from West

Location: Austin Straubel International Airport

Current Time: Sep 16, 2014 at 10:59:37 AM

Latest Report: Sep 16, 2014 at 9:53 AM


Visibility: 10 mi

Pressure: 30.19 "Hg

Humidity: 67%

Dew point: 43 °F

Location of Green BayLocation

Historic Weather in Green Bay — Graph

°F

Green Bay temperature yesterday

Maximum temperature yesterday: 61 °F (at 4:53 PM)
Minimum temperature yesterday: 45 °F (at 11:53 PM)
Average temperature yesterday: 53 °F

Past Weeks' High & Low Weather Summary

 TemperatureHumidityPressure
High79 °F (Sep 3, 2:53 PM)100% (Sep 2, 4:53 AM)30.42 "Hg (Sep 2, 4:53 AM)
Low39 °F (Sep 13, 4:53 AM)47% (Sep 7, 1:53 PM)29.42 "Hg (Sep 10, 1:53 PM)
Average60 °F81%30.03 "Hg
* Reported Sep 1 9:53 AM — Sep 16 9:53 AM, Green Bay, Weather by CustomWeather, © 2014

Note: Actual official high and low records may vary slightly from our data, if they occured in-between our weather recording intervals... More about our weather records

Advertising

Green Bay weather history for previous 24 hours

 ConditionsComfort  
Time TempWeatherWind HumidityBarometerVisibility
9:53 AM
Sep 16
54 °FSunny.8 mph67%30.19 "Hg10 mi
8:53 AM50 °FSunny.8 mph77%30.19 "Hg10 mi
7:53 AM45 °FSunny.7 mph90%30.19 "Hg10 mi
6:53 AM39 °FClear.5 mph96%30.19 "Hg10 mi
5:53 AM39 °FClear.5 mph96%30.19 "Hg10 mi
4:53 AM39 °FClear.5 mph96%30.19 "Hg10 mi
3:53 AM40 °FClear.5 mph97%30.19 "Hg10 mi
2:53 AM40 °FClear.3 mph97%30.19 "Hg10 mi
1:53 AM41 °FClear.No wind96%30.19 "Hg10 mi
12:53 AM43 °FClear.3 mph93%30.18 "Hg10 mi
11:53 PM
Sep 15
45 °FClear.7 mph93%30.17 "Hg10 mi
10:53 PM47 °FClear.8 mph93%30.16 "Hg10 mi
9:53 PM46 °FClear.5 mph96%30.15 "Hg10 mi
8:53 PM49 °FClear.5 mph93%30.14 "Hg10 mi
7:53 PM50 °FSunny.3 mph93%30.13 "Hg10 mi
6:53 PM55 °FSunny.5 mph80%30.12 "Hg10 mi
5:53 PM59 °FSunny.5 mph69%30.11 "Hg10 mi
4:53 PM61 °FScattered clouds.6 mph65%30.11 "Hg10 mi
3:53 PM58 °FBroken clouds.6 mph75%30.11 "Hg10 mi
2:53 PM58 °FScattered clouds.8 mph72%30.11 "Hg10 mi
1:53 PM56 °FOvercast.6 mph77%30.13 "Hg10 mi
12:53 PM56 °FOvercast.5 mph77%30.13 "Hg10 mi
11:53 AM55 °FMore clouds than sun.No wind77%30.13 "Hg10 mi
10:53 AM55 °FOvercast.5 mph83%30.15 "Hg10 mi
Weather by CustomWeather, © 2014

See weather overviewHow to use our weather pages